Weather History for Kodiak, AK

Change the Weather History Date:

Friday, November 25, 2011

  Actual Average Record
Temperature  
Mean Temperature 22 °F 32 °F  
Max Temperature 24 °F 37 °F 54 °F (1970)
Min Temperature 20 °F 27 °F 5 °F (2005)
Degree Days  
Heating Degree Days 43 33  
Month to date heating degree days 893 769  
Since 1 July heating degree days 2693 2627  
Cooling Degree Days 0    
Month to date cooling degree days 0  
Year to date cooling degree days 0  
Moisture  
Dew Point 12 °F    
Average Humidity 0    
Maximum Humidity 0    
Minimum Humidity 0    
Precipitation  
Precipitation T in 0.24 in 1.85 in (1982)
Month to date precipitation 3.64 5.60  
Year to date precipitation 63.72 68.00  
Snow  
Snow T in 0.30 in 2.60 in (1976)
Month to date snowfall 25.1 4.6  
Since 1 July snowfall 25.1 5.7  
Since 1 September snowfall 25.1 5.7  
Snow Depth 9.00 in    
Sea Level Pressure  
Sea Level Pressure 29.49 in    
Wind  
Wind Speed 6 mph (West)    
Max Wind Speed 16 mph    
Max Gust Speed 21 mph    
Visibility 9 miles    
Events Snow    
T = Trace of Precipitation, MM = Missing Value Source: NWS Daily Summary

Daily Weather History Graph

Daily Weather History Graph

Search for Another Location

Airport:

Trip Planner

Search our weather history database for the weather conditions in past years. The results will help you decide how hot, cold, wet, or windy it might be!

Date:

Astronomy

Nov. 25, 2011 Rise Set
Actual Time 9:16 AM AKST 4:36 PM AKST
Civil Twilight 8:29 AM AKST 5:24 PM AKST
Nautical Twilight 7:39 AM AKST 6:13 PM AKST
Astronomical Twilight 6:52 AM AKST 7:00 PM AKST
Moon 10:12 AM AKST (11/25) 4:58 PM AKST (11/25)
Length of Visible Light 8h 55m
Length of Day
7h 20m
New Moon, 1% of the Moon is Illuminated
Nov 25
New Moon
Dec 2
First Quarter
Dec 10
Full
Dec 17
Last Quarter
Dec 24
New

Hourly Weather History & Observations

Time (AKST) Temp. Windchill Dew Point Humidity Pressure Visibility Wind Dir Wind Speed Gust Speed Precip Events Conditions
12:53 AM 19.9 °F 11.1 °F 12.9 °F 74% 29.33 in 7.0 mi WNW 6.9 mph - 0.00 in Snow Light Snow
1:53 AM 21.0 °F - 14.0 °F 74% 29.35 in 8.0 mi Calm Calm - 0.00 in Snow Light Snow
2:16 AM 21.2 °F 16.4 °F 14.0 °F 74% 29.35 in 6.0 mi Variable 3.5 mph - 0.00 in Snow Light Snow
3:53 AM 21.9 °F 11.7 °F 12.9 °F 68% 29.37 in 10.0 mi NW 9.2 mph - N/A   Scattered Clouds
4:53 AM 23.0 °F 18.4 °F 12.0 °F 63% 29.38 in 10.0 mi Variable 3.5 mph - N/A   Scattered Clouds
5:53 AM 23.0 °F 17.0 °F 10.9 °F 60% 29.39 in 10.0 mi SSW 4.6 mph - N/A   Scattered Clouds
6:53 AM 23.0 °F 17.0 °F 10.9 °F 60% 29.41 in 10.0 mi Variable 4.6 mph - N/A   Scattered Clouds
7:53 AM 23.0 °F 10.6 °F 12.0 °F 63% 29.42 in 10.0 mi West 13.8 mph 19.6 mph N/A   Scattered Clouds
8:53 AM 23.0 °F 11.7 °F 12.0 °F 63% 29.45 in 10.0 mi West 11.5 mph 19.6 mph N/A   Mostly Cloudy
9:53 AM 23.0 °F 13.1 °F 12.0 °F 63% 29.47 in 10.0 mi WSW 9.2 mph - N/A   Mostly Cloudy
10:53 AM 24.1 °F 14.4 °F 14.0 °F 65% 29.49 in 10.0 mi WSW 9.2 mph 20.7 mph N/A   Mostly Cloudy
11:53 AM 23.0 °F 11.7 °F 12.9 °F 65% 29.50 in 10.0 mi West 11.5 mph - N/A   Mostly Cloudy
12:53 PM 21.9 °F 9.8 °F 12.0 °F 66% 29.51 in 10.0 mi West 12.7 mph - N/A   Scattered Clouds
1:53 PM 23.0 °F 12.4 °F 12.0 °F 63% 29.51 in 10.0 mi WSW 10.4 mph - N/A   Mostly Cloudy
2:53 PM 23.0 °F 13.1 °F 12.9 °F 65% 29.51 in 8.0 mi West 9.2 mph - 0.00 in Snow Light Snow
3:53 PM 21.9 °F 12.5 °F 12.9 °F 68% 29.52 in 9.0 mi West 8.1 mph - 0.00 in Snow Light Snow
4:53 PM 21.9 °F 13.4 °F 14.0 °F 72% 29.53 in 5.0 mi West 6.9 mph - 0.00 in Snow Light Snow
5:00 PM 21.2 °F 12.6 °F 14.0 °F 74% 29.53 in 9.0 mi West 6.9 mph - 0.00 in Snow Light Snow
5:08 PM 21.2 °F 12.6 °F 14.0 °F 74% 29.53 in 5.0 mi West 6.9 mph - 0.00 in Snow Light Snow
5:53 PM 21.0 °F 13.4 °F 12.9 °F 71% 29.55 in 5.0 mi West 5.8 mph - 0.00 in Snow Light Snow
6:00 PM 21.2 °F 10.9 °F 12.2 °F 68% 29.54 in 9.0 mi West 9.2 mph - 0.00 in Snow Light Snow
6:53 PM 19.9 °F - 9.0 °F 62% 29.55 in 9.0 mi Calm Calm - 0.00 in Snow Light Snow
7:53 PM 19.9 °F - 10.0 °F 65% 29.56 in 10.0 mi Calm Calm - 0.00 in   Scattered Clouds
8:53 PM 19.9 °F 14.9 °F 10.9 °F 68% 29.56 in 10.0 mi West 3.5 mph - N/A   Mostly Cloudy
9:53 PM 21.0 °F 13.4 °F 12.9 °F 71% 29.57 in 10.0 mi West 5.8 mph - 0.00 in   Mostly Cloudy
10:53 PM 19.9 °F 12.1 °F 12.9 °F 74% 29.57 in 6.0 mi West 5.8 mph - 0.00 in Snow Light Snow
11:00 PM 19.4 °F 12.8 °F 12.2 °F 74% 29.57 in 9.0 mi West 4.6 mph - 0.00 in   Partly Cloudy
11:07 PM 19.4 °F 11.5 °F 12.2 °F 74% 29.57 in 10.0 mi West 5.8 mph - 0.00 in   Overcast
11:53 PM 19.9 °F 11.1 °F 10.9 °F 68% 29.57 in 10.0 mi West 6.9 mph - 0.00 in   Mostly Cloudy